owner,sensor,date,latitude,longitude,vertical_datum,sea_water_practical_salinity,qcFlag 
TCOON,ioos:station:TCOON:127:1,2014-07-01T00:30:00Z,28.2598,-96.7737,0.0,30.8,1111122 
TCOON,ioos:station:TCOON:127:1,2014-07-01T01:30:00Z,28.2598,-96.7737,0.0,30.9,1111122 
TCOON,ioos:station:TCOON:127:1,2014-07-01T02:30:00Z,28.2598,-96.7737,0.0,31.1,1111122 
TCOON,ioos:station:TCOON:127:1,2014-07-01T03:30:00Z,28.2598,-96.7737,0.0,31.2,1111122 
TCOON,ioos:station:TCOON:127:1,2014-07-01T04:30:00Z,28.2598,-96.7737,0.0,31.0,1111122 
TCOON,ioos:station:TCOON:127:1,2014-07-01T05:30:00Z,28.2598,-96.7737,0.0,31.3,1111122 
TCOON,ioos:station:TCOON:127:1,2014-07-01T07:00:00Z,28.2598,-96.7737,0.0,31.4,1111122 
TCOON,ioos:station:TCOON:127:1,2014-07-01T07:30:00Z,28.2598,-96.7737,0.0,31.3,1111122 
TCOON,ioos:station:TCOON:127:1,2014-07-01T09:00:00Z,28.2598,-96.7737,0.0,30.9,1111122 
TCOON,ioos:station:TCOON:127:1,2014-07-01T09:30:00Z,28.2598,-96.7737,0.0,31.4,1111122 
TCOON,ioos:station:TCOON:127:1,2014-07-01T10:30:00Z,28.2598,-96.7737,0.0,31.9,1111122 
TCOON,ioos:station:TCOON:127:1,2014-07-01T11:30:00Z,28.2598,-96.7737,0.0,32.1,1111122 
TCOON,ioos:station:TCOON:127:1,2014-07-01T12:30:00Z,28.2598,-96.7737,0.0,32.1,1111122 
TCOON,ioos:station:TCOON:127:1,2014-07-01T13:30:00Z,28.2598,-96.7737,0.0,31.6,1111122 
TCOON,ioos:station:TCOON:127:1,2014-07-01T14:30:00Z,28.2598,-96.7737,0.0,28.9,1111122 
TCOON,ioos:station:TCOON:127:1,2014-07-01T15:30:00Z,28.2598,-96.7737,0.0,27.4,1111122 
TCOON,ioos:station:TCOON:127:1,2014-07-01T16:30:00Z,28.2598,-96.7737,0.0,28.7,1111122 
TCOON,ioos:station:TCOON:127:1,2014-07-01T17:30:00Z,28.2598,-96.7737,0.0,29.7,1111122 
TCOON,ioos:station:TCOON:127:1,2014-07-01T18:30:00Z,28.2598,-96.7737,0.0,30.1,1111122 
TCOON,ioos:station:TCOON:127:1,2014-07-01T19:30:00Z,28.2598,-96.7737,0.0,30.1,1111122 
TCOON,ioos:station:TCOON:127:1,2014-07-01T21:30:00Z,28.2598,-96.7737,0.0,30.0,1111122 
TCOON,ioos:station:TCOON:127:1,2014-07-01T22:30:00Z,28.2598,-96.7737,0.0,27.7,1111122 
TCOON,ioos:station:TCOON:127:1,2014-07-01T23:30:00Z,28.2598,-96.7737,0.0,30.3,1111122 
TCOON,ioos:station:TCOON:127:1,2014-07-02T00:30:00Z,28.2598,-96.7737,0.0,29.2,1111122 
TCOON,ioos:station:TCOON:127:1,2014-07-02T02:30:00Z,28.2598,-96.7737,0.0,28.4,1111122 
TCOON,ioos:station:TCOON:127:1,2014-07-02T03:30:00Z,28.2598,-96.7737,0.0,28.5,1111122 
TCOON,ioos:station:TCOON:127:1,2014-07-02T05:00:00Z,28.2598,-96.7737,0.0,26.9,1111122 
TCOON,ioos:station:TCOON:127:1,2014-07-02T05:30:00Z,28.2598,-96.7737,0.0,26.8,1111122 
TCOON,ioos:station:TCOON:127:1,2014-07-02T07:00:00Z,28.2598,-96.7737,0.0,26.7,1111122 
TCOON,ioos:station:TCOON:127:1,2014-07-02T07:30:00Z,28.2598,-96.7737,0.0,26.5,1111122 
TCOON,ioos:station:TCOON:127:1,2014-07-02T08:30:00Z,28.2598,-96.7737,0.0,26.4,1111122 
TCOON,ioos:station:TCOON:127:1,2014-07-02T09:30:00Z,28.2598,-96.7737,0.0,26.6,1111122 
TCOON,ioos:station:TCOON:127:1,2014-07-02T10:30:00Z,28.2598,-96.7737,0.0,26.6,1111122 
TCOON,ioos:station:TCOON:127:1,2014-07-02T11:30:00Z,28.2598,-96.7737,0.0,26.2,1111122 
TCOON,ioos:station:TCOON:127:1,2014-07-02T12:30:00Z,28.2598,-96.7737,0.0,26.8,1111122 
TCOON,ioos:station:TCOON:127:1,2014-07-02T13:30:00Z,28.2598,-96.7737,0.0,27.4,1111122 
TCOON,ioos:station:TCOON:127:1,2014-07-02T14:30:00Z,28.2598,-96.7737,0.0,27.5,1111122 
TCOON,ioos:station:TCOON:127:1,2014-07-02T16:00:00Z,28.2598,-96.7737,0.0,26.8,1111122 
TCOON,ioos:station:TCOON:127:1,2014-07-02T16:30:00Z,28.2598,-96.7737,0.0,26.7,1111122 
TCOON,ioos:station:TCOON:127:1,2014-07-02T17:30:00Z,28.2598,-96.7737,0.0,26.4,1111122 
TCOON,ioos:station:TCOON:127:1,2014-07-02T19:00:00Z,28.2598,-96.7737,0.0,25.5,1111122 
TCOON,ioos:station:TCOON:127:1,2014-07-02T19:30:00Z,28.2598,-96.7737,0.0,25.7,1111122 
TCOON,ioos:station:TCOON:127:1,2014-07-02T20:30:00Z,28.2598,-96.7737,0.0,25.2,1111122 
TCOON,ioos:station:TCOON:127:1,2014-07-02T21:30:00Z,28.2598,-96.7737,0.0,25.2,1111122 
TCOON,ioos:station:TCOON:127:1,2014-07-02T22:30:00Z,28.2598,-96.7737,0.0,25.1,1111122 
TCOON,ioos:station:TCOON:127:1,2014-07-02T23:30:00Z,28.2598,-96.7737,0.0,25.3,1111122 
TCOON,ioos:station:TCOON:127:1,2014-07-03T00:30:00Z,28.2598,-96.7737,0.0,25.5,1111122 
TCOON,ioos:station:TCOON:127:1,2014-07-03T01:30:00Z,28.2598,-96.7737,0.0,25.5,1111122 
TCOON,ioos:station:TCOON:127:1,2014-07-03T02:30:00Z,28.2598,-96.7737,0.0,25.1,1111122 
TCOON,ioos:station:TCOON:127:1,2014-07-03T03:30:00Z,28.2598,-96.7737,0.0,25.2,1111122 
TCOON,ioos:station:TCOON:127:1,2014-07-03T04:30:00Z,28.2598,-96.7737,0.0,25.3,1111122 
TCOON,ioos:station:TCOON:127:1,2014-07-03T06:00:00Z,28.2598,-96.7737,0.0,25.3,1111122 
TCOON,ioos:station:TCOON:127:1,2014-07-03T06:30:00Z,28.2598,-96.7737,0.0,25.3,1111122 
TCOON,ioos:station:TCOON:127:1,2014-07-03T08:00:00Z,28.2598,-96.7737,0.0,25.3,1111122 
TCOON,ioos:station:TCOON:127:1,2014-07-03T09:30:00Z,28.2598,-96.7737,0.0,25.2,1111122 
TCOON,ioos:station:TCOON:127:1,2014-07-03T10:30:00Z,28.2598,-96.7737,0.0,25.0,1111122 
TCOON,ioos:station:TCOON:127:1,2014-07-03T12:00:00Z,28.2598,-96.7737,0.0,25.8,1111122 
TCOON,ioos:station:TCOON:127:1,2014-07-03T12:30:00Z,28.2598,-96.7737,0.0,25.8,1111122 
TCOON,ioos:station:TCOON:127:1,2014-07-03T14:00:00Z,28.2598,-96.7737,0.0,26.2,1111122 
TCOON,ioos:station:TCOON:127:1,2014-07-03T14:30:00Z,28.2598,-96.7737,0.0,26.4,1111122 
TCOON,ioos:station:TCOON:127:1,2014-07-03T15:30:00Z,28.2598,-96.7737,0.0,26.9,1111122 
TCOON,ioos:station:TCOON:127:1,2014-07-03T16:30:00Z,28.2598,-96.7737,0.0,26.9,1111122 
TCOON,ioos:station:TCOON:127:1,2014-07-03T17:30:00Z,28.2598,-96.7737,0.0,26.6,1111122 
TCOON,ioos:station:TCOON:127:1,2014-07-03T18:30:00Z,28.2598,-96.7737,0.0,26.4,1111122 
TCOON,ioos:station:TCOON:127:1,2014-07-03T20:00:00Z,28.2598,-96.7737,0.0,26.4,1111122 
TCOON,ioos:station:TCOON:127:1,2014-07-03T21:00:00Z,28.2598,-96.7737,0.0,25.9,1111122 
TCOON,ioos:station:TCOON:127:1,2014-07-03T21:30:00Z,28.2598,-96.7737,0.0,26.2,1111122 
TCOON,ioos:station:TCOON:127:1,2014-07-03T23:00:00Z,28.2598,-96.7737,0.0,25.4,1111122 
TCOON,ioos:station:TCOON:127:1,2014-07-03T23:30:00Z,28.2598,-96.7737,0.0,25.3,1111122 
TCOON,ioos:station:TCOON:127:1,2014-07-04T00:30:00Z,28.2598,-96.7737,0.0,25.7,1111122 
TCOON,ioos:station:TCOON:127:1,2014-07-04T01:30:00Z,28.2598,-96.7737,0.0,25.7,1111122 
TCOON,ioos:station:TCOON:127:1,2014-07-04T02:30:00Z,28.2598,-96.7737,0.0,25.7,1111122 
TCOON,ioos:station:TCOON:127:1,2014-07-04T03:30:00Z,28.2598,-96.7737,0.0,25.8,1111122 
TCOON,ioos:station:TCOON:127:1,2014-07-04T04:30:00Z,28.2598,-96.7737,0.0,25.6,1111122 
TCOON,ioos:station:TCOON:127:1,2014-07-04T05:30:00Z,28.2598,-96.7737,0.0,26.0,1111122 
TCOON,ioos:station:TCOON:127:1,2014-07-04T09:00:00Z,28.2598,-96.7737,0.0,25.6,1111122 
TCOON,ioos:station:TCOON:127:1,2014-07-04T10:30:00Z,28.2598,-96.7737,0.0,25.5,1111122 
TCOON,ioos:station:TCOON:127:1,2014-07-04T12:00:00Z,28.2598,-96.7737,0.0,25.8,1111122 
TCOON,ioos:station:TCOON:127:1,2014-07-04T12:30:00Z,28.2598,-96.7737,0.0,25.8,1111122 
TCOON,ioos:station:TCOON:127:1,2014-07-04T13:30:00Z,28.2598,-96.7737,0.0,25.8,1111122 
TCOON,ioos:station:TCOON:127:1,2014-07-04T14:30:00Z,28.2598,-96.7737,0.0,25.6,1111122 
TCOON,ioos:station:TCOON:127:1,2014-07-04T15:30:00Z,28.2598,-96.7737,0.0,25.8,1111122 
TCOON,ioos:station:TCOON:127:1,2014-07-04T16:30:00Z,28.2598,-96.7737,0.0,25.7,1111122 
TCOON,ioos:station:TCOON:127:1,2014-07-04T17:30:00Z,28.2598,-96.7737,0.0,25.7,1111122 
TCOON,ioos:station:TCOON:127:1,2014-07-04T19:00:00Z,28.2598,-96.7737,0.0,25.6,1111122 
TCOON,ioos:station:TCOON:127:1,2014-07-04T19:30:00Z,28.2598,-96.7737,0.0,25.6,1111122 
TCOON,ioos:station:TCOON:127:1,2014-07-04T20:30:00Z,28.2598,-96.7737,0.0,25.7,1111122 
TCOON,ioos:station:TCOON:127:1,2014-07-04T21:30:00Z,28.2598,-96.7737,0.0,25.8,1111122 
TCOON,ioos:station:TCOON:127:1,2014-07-04T23:00:00Z,28.2598,-96.7737,0.0,25.9,1111122 
TCOON,ioos:station:TCOON:127:1,2014-07-05T00:30:00Z,28.2598,-96.7737,0.0,25.8,1111122 
TCOON,ioos:station:TCOON:127:1,2014-07-05T01:30:00Z,28.2598,-96.7737,0.0,25.8,1111122 
TCOON,ioos:station:TCOON:127:1,2014-07-05T02:30:00Z,28.2598,-96.7737,0.0,25.7,1111122 
TCOON,ioos:station:TCOON:127:1,2014-07-05T04:00:00Z,28.2598,-96.7737,0.0,25.6,1111122 
TCOON,ioos:station:TCOON:127:1,2014-07-05T04:30:00Z,28.2598,-96.7737,0.0,25.5,1111122 
TCOON,ioos:station:TCOON:127:1,2014-07-05T06:00:00Z,28.2598,-96.7737,0.0,25.3,1111122 
TCOON,ioos:station:TCOON:127:1,2014-07-05T06:30:00Z,28.2598,-96.7737,0.0,25.3,1111122 
TCOON,ioos:station:TCOON:127:1,2014-07-05T07:30:00Z,28.2598,-96.7737,0.0,25.2,1111122 
TCOON,ioos:station:TCOON:127:1,2014-07-05T08:30:00Z,28.2598,-96.7737,0.0,25.1,1111122 
TCOON,ioos:station:TCOON:127:1,2014-07-05T10:30:00Z,28.2598,-96.7737,0.0,25.2,1111122 
TCOON,ioos:station:TCOON:127:1,2014-07-05T11:30:00Z,28.2598,-96.7737,0.0,25.1,1111122 
TCOON,ioos:station:TCOON:127:1,2014-07-05T12:30:00Z,28.2598,-96.7737,0.0,25.2,1111122 
TCOON,ioos:station:TCOON:127:1,2014-07-05T14:00:00Z,28.2598,-96.7737,0.0,25.4,1111122 
TCOON,ioos:station:TCOON:127:1,2014-07-05T14:30:00Z,28.2598,-96.7737,0.0,25.5,1111122 
TCOON,ioos:station:TCOON:127:1,2014-07-05T15:30:00Z,28.2598,-96.7737,0.0,25.9,1111122 
TCOON,ioos:station:TCOON:127:1,2014-07-05T17:00:00Z,28.2598,-96.7737,0.0,25.7,1111122 
TCOON,ioos:station:TCOON:127:1,2014-07-05T17:30:00Z,28.2598,-96.7737,0.0,25.7,1111122 
TCOON,ioos:station:TCOON:127:1,2014-07-05T19:00:00Z,28.2598,-96.7737,0.0,25.6,1111122 
TCOON,ioos:station:TCOON:127:1,2014-07-05T19:30:00Z,28.2598,-96.7737,0.0,25.6,1111122 
TCOON,ioos:station:TCOON:127:1,2014-07-05T20:30:00Z,28.2598,-96.7737,0.0,25.5,1111122 
TCOON,ioos:station:TCOON:127:1,2014-07-05T21:30:00Z,28.2598,-96.7737,0.0,25.5,1111122 
TCOON,ioos:station:TCOON:127:1,2014-07-05T22:30:00Z,28.2598,-96.7737,0.0,25.4,1111122 
TCOON,ioos:station:TCOON:127:1,2014-07-05T23:30:00Z,28.2598,-96.7737,0.0,25.4,1111122 
TCOON,ioos:station:TCOON:127:1,2014-07-06T00:30:00Z,28.2598,-96.7737,0.0,25.3,1111122 
TCOON,ioos:station:TCOON:127:1,2014-07-06T01:30:00Z,28.2598,-96.7737,0.0,25.3,1111122 
TCOON,ioos:station:TCOON:127:1,2014-07-06T02:30:00Z,28.2598,-96.7737,0.0,25.2,1111122 
TCOON,ioos:station:TCOON:127:1,2014-07-06T03:30:00Z,28.2598,-96.7737,0.0,25.2,1111122 
TCOON,ioos:station:TCOON:127:1,2014-07-06T04:30:00Z,28.2598,-96.7737,0.0,25.2,1111122 
TCOON,ioos:station:TCOON:127:1,2014-07-06T05:30:00Z,28.2598,-96.7737,0.0,25.2,1111122 
TCOON,ioos:station:TCOON:127:1,2014-07-06T06:30:00Z,28.2598,-96.7737,0.0,25.1,1111122 
TCOON,ioos:station:TCOON:127:1,2014-07-06T07:30:00Z,28.2598,-96.7737,0.0,25.2,1111122 
TCOON,ioos:station:TCOON:127:1,2014-07-06T08:30:00Z,28.2598,-96.7737,0.0,25.2,1111122 
TCOON,ioos:station:TCOON:127:1,2014-07-06T09:30:00Z,28.2598,-96.7737,0.0,25.3,1111122 
TCOON,ioos:station:TCOON:127:1,2014-07-06T10:30:00Z,28.2598,-96.7737,0.0,25.5,1111122 
TCOON,ioos:station:TCOON:127:1,2014-07-06T11:30:00Z,28.2598,-96.7737,0.0,25.5,1111122 
TCOON,ioos:station:TCOON:127:1,2014-07-06T12:30:00Z,28.2598,-96.7737,0.0,25.5,1111122 
TCOON,ioos:station:TCOON:127:1,2014-07-06T13:30:00Z,28.2598,-96.7737,0.0,25.5,1111122 
TCOON,ioos:station:TCOON:127:1,2014-07-06T14:30:00Z,28.2598,-96.7737,0.0,25.4,1111122 
TCOON,ioos:station:TCOON:127:1,2014-07-06T15:30:00Z,28.2598,-96.7737,0.0,25.5,1111122 
TCOON,ioos:station:TCOON:127:1,2014-07-06T16:30:00Z,28.2598,-96.7737,0.0,25.4,1111122 
TCOON,ioos:station:TCOON:127:1,2014-07-06T18:00:00Z,28.2598,-96.7737,0.0,25.5,1111122 
TCOON,ioos:station:TCOON:127:1,2014-07-06T18:30:00Z,28.2598,-96.7737,0.0,25.5,1111122 
TCOON,ioos:station:TCOON:127:1,2014-07-06T20:30:00Z,28.2598,-96.7737,0.0,25.8,1111122 
TCOON,ioos:station:TCOON:127:1,2014-07-06T22:00:00Z,28.2598,-96.7737,0.0,25.9,1111122 
TCOON,ioos:station:TCOON:127:1,2014-07-06T22:30:00Z,28.2598,-96.7737,0.0,25.9,1111122 
TCOON,ioos:station:TCOON:127:1,2014-07-06T23:30:00Z,28.2598,-96.7737,0.0,25.9,1111122 
TCOON,ioos:station:TCOON:127:1,2014-07-07T01:00:00Z,28.2598,-96.7737,0.0,26.2,1111122 
TCOON,ioos:station:TCOON:127:1,2014-07-07T01:30:00Z,28.2598,-96.7737,0.0,26.3,1111122 
TCOON,ioos:station:TCOON:127:1,2014-07-07T03:00:00Z,28.2598,-96.7737,0.0,26.4,1111122 
TCOON,ioos:station:TCOON:127:1,2014-07-07T03:30:00Z,28.2598,-96.7737,0.0,26.5,1111122 
TCOON,ioos:station:TCOON:127:1,2014-07-07T04:30:00Z,28.2598,-96.7737,0.0,26.4,1111122 
TCOON,ioos:station:TCOON:127:1,2014-07-07T05:30:00Z,28.2598,-96.7737,0.0,26.4,1111122 
TCOON,ioos:station:TCOON:127:1,2014-07-07T06:30:00Z,28.2598,-96.7737,0.0,26.6,1111122 
TCOON,ioos:station:TCOON:127:1,2014-07-07T08:00:00Z,28.2598,-96.7737,0.0,26.5,1111122 
TCOON,ioos:station:TCOON:127:1,2014-07-07T08:30:00Z,28.2598,-96.7737,0.0,26.6,1111122 
TCOON,ioos:station:TCOON:127:1,2014-07-07T09:30:00Z,28.2598,-96.7737,0.0,26.6,1111122 
TCOON,ioos:station:TCOON:127:1,2014-07-07T10:30:00Z,28.2598,-96.7737,0.0,26.6,1111122 
TCOON,ioos:station:TCOON:127:1,2014-07-07T11:30:00Z,28.2598,-96.7737,0.0,26.8,1111122 
TCOON,ioos:station:TCOON:127:1,2014-07-07T12:30:00Z,28.2598,-96.7737,0.0,26.8,1111122 
TCOON,ioos:station:TCOON:127:1,2014-07-07T13:30:00Z,28.2598,-96.7737,0.0,26.8,1111122 
TCOON,ioos:station:TCOON:127:1,2014-07-07T14:30:00Z,28.2598,-96.7737,0.0,26.8,1111122 
TCOON,ioos:station:TCOON:127:1,2014-07-07T15:30:00Z,28.2598,-96.7737,0.0,26.8,1111122 
TCOON,ioos:station:TCOON:127:1,2014-07-07T16:30:00Z,28.2598,-96.7737,0.0,26.8,1111122 
TCOON,ioos:station:TCOON:127:1,2014-07-07T17:30:00Z,28.2598,-96.7737,0.0,26.8,1111122 
TCOON,ioos:station:TCOON:127:1,2014-07-07T18:30:00Z,28.2598,-96.7737,0.0,26.8,1111122 
TCOON,ioos:station:TCOON:127:1,2014-07-07T19:30:00Z,28.2598,-96.7737,0.0,26.8,1111122 
TCOON,ioos:station:TCOON:127:1,2014-07-07T20:30:00Z,28.2598,-96.7737,0.0,26.9,1111122 
TCOON,ioos:station:TCOON:127:1,2014-07-07T21:30:00Z,28.2598,-96.7737,0.0,26.9,1111122 
TCOON,ioos:station:TCOON:127:1,2014-07-07T23:30:00Z,28.2598,-96.7737,0.0,27.3,1111122 
TCOON,ioos:station:TCOON:127:1,2014-07-08T00:30:00Z,28.2598,-96.7737,0.0,27.1,1111122 
TCOON,ioos:station:TCOON:127:1,2014-07-08T02:00:00Z,28.2598,-96.7737,0.0,27.0,1111122 
TCOON,ioos:station:TCOON:127:1,2014-07-08T02:30:00Z,28.2598,-96.7737,0.0,27.0,1111122 
TCOON,ioos:station:TCOON:127:1,2014-07-08T03:30:00Z,28.2598,-96.7737,0.0,26.9,1111122 
TCOON,ioos:station:TCOON:127:1,2014-07-08T04:30:00Z,28.2598,-96.7737,0.0,26.8,1111122 
TCOON,ioos:station:TCOON:127:1,2014-07-08T05:30:00Z,28.2598,-96.7737,0.0,26.8,1111122 
TCOON,ioos:station:TCOON:127:1,2014-07-08T06:30:00Z,28.2598,-96.7737,0.0,26.7,1111122 
TCOON,ioos:station:TCOON:127:1,2014-07-08T07:30:00Z,28.2598,-96.7737,0.0,26.7,1111122 
TCOON,ioos:station:TCOON:127:1,2014-07-08T09:00:00Z,28.2598,-96.7737,0.0,27.2,1111122 
TCOON,ioos:station:TCOON:127:1,2014-07-08T10:00:00Z,28.2598,-96.7737,0.0,27.2,1111122 
TCOON,ioos:station:TCOON:127:1,2014-07-08T11:00:00Z,28.2598,-96.7737,0.0,27.3,1111122 
TCOON,ioos:station:TCOON:127:1,2014-07-08T11:30:00Z,28.2598,-96.7737,0.0,27.2,1111122 
TCOON,ioos:station:TCOON:127:1,2014-07-08T12:30:00Z,28.2598,-96.7737,0.0,27.1,1111122 
TCOON,ioos:station:TCOON:127:1,2014-07-08T13:30:00Z,28.2598,-96.7737,0.0,27.2,1111122 
TCOON,ioos:station:TCOON:127:1,2014-07-08T15:00:00Z,28.2598,-96.7737,0.0,27.2,1111122 
TCOON,ioos:station:TCOON:127:1,2014-07-08T15:30:00Z,28.2598,-96.7737,0.0,27.2,1111122 
TCOON,ioos:station:TCOON:127:1,2014-07-08T16:30:00Z,28.2598,-96.7737,0.0,27.2,1111122 
TCOON,ioos:station:TCOON:127:1,2014-07-08T17:30:00Z,28.2598,-96.7737,0.0,27.1,1111122 
TCOON,ioos:station:TCOON:127:1,2014-07-08T18:30:00Z,28.2598,-96.7737,0.0,27.3,1111122 
TCOON,ioos:station:TCOON:127:1,2014-07-08T19:30:00Z,28.2598,-96.7737,0.0,27.3,1111122 
TCOON,ioos:station:TCOON:127:1,2014-07-08T20:30:00Z,28.2598,-96.7737,0.0,27.5,1111122 
TCOON,ioos:station:TCOON:127:1,2014-07-08T21:30:00Z,28.2598,-96.7737,0.0,27.7,1111122 
TCOON,ioos:station:TCOON:127:1,2014-07-08T23:00:00Z,28.2598,-96.7737,0.0,27.8,1111122 
TCOON,ioos:station:TCOON:127:1,2014-07-08T23:30:00Z,28.2598,-96.7737,0.0,27.9,1111122 
TCOON,ioos:station:TCOON:127:1,2014-07-09T00:30:00Z,28.2598,-96.7737,0.0,28.0,1111122 
TCOON,ioos:station:TCOON:127:1,2014-07-09T01:30:00Z,28.2598,-96.7737,0.0,28.6,1111122 
TCOON,ioos:station:TCOON:127:1,2014-07-09T02:30:00Z,28.2598,-96.7737,0.0,28.5,1111122 
TCOON,ioos:station:TCOON:127:1,2014-07-09T03:30:00Z,28.2598,-96.7737,0.0,28.5,1111122 
TCOON,ioos:station:TCOON:127:1,2014-07-09T04:30:00Z,28.2598,-96.7737,0.0,28.4,1111122 
TCOON,ioos:station:TCOON:127:1,2014-07-09T05:30:00Z,28.2598,-96.7737,0.0,28.5,1111122 
TCOON,ioos:station:TCOON:127:1,2014-07-09T06:30:00Z,28.2598,-96.7737,0.0,28.2,1111122 
TCOON,ioos:station:TCOON:127:1,2014-07-09T07:30:00Z,28.2598,-96.7737,0.0,28.1,1111122 
TCOON,ioos:station:TCOON:127:1,2014-07-09T08:30:00Z,28.2598,-96.7737,0.0,28.0,1111122 
TCOON,ioos:station:TCOON:127:1,2014-07-09T11:00:00Z,28.2598,-96.7737,0.0,28.6,1111122 
TCOON,ioos:station:TCOON:127:1,2014-07-09T13:00:00Z,28.2598,-96.7737,0.0,28.6,1111122 
TCOON,ioos:station:TCOON:127:1,2014-07-09T13:30:00Z,28.2598,-96.7737,0.0,28.5,1111122 
TCOON,ioos:station:TCOON:127:1,2014-07-09T14:30:00Z,28.2598,-96.7737,0.0,28.7,1111122 
TCOON,ioos:station:TCOON:127:1,2014-07-09T15:30:00Z,28.2598,-96.7737,0.0,28.8,1111122 
TCOON,ioos:station:TCOON:127:1,2014-07-09T16:30:00Z,28.2598,-96.7737,0.0,28.8,1111122 
TCOON,ioos:station:TCOON:127:1,2014-07-09T17:30:00Z,28.2598,-96.7737,0.0,28.6,1111122 
TCOON,ioos:station:TCOON:127:1,2014-07-09T18:30:00Z,28.2598,-96.7737,0.0,28.7,1111122 
TCOON,ioos:station:TCOON:127:1,2014-07-09T20:00:00Z,28.2598,-96.7737,0.0,28.8,1111122 
TCOON,ioos:station:TCOON:127:1,2014-07-09T21:00:00Z,28.2598,-96.7737,0.0,29.0,1111122 
TCOON,ioos:station:TCOON:127:1,2014-07-09T21:30:00Z,28.2598,-96.7737,0.0,29.5,1111122 
TCOON,ioos:station:TCOON:127:1,2014-07-09T23:30:00Z,28.2598,-96.7737,0.0,29.5,1111122 
TCOON,ioos:station:TCOON:127:1,2014-07-10T00:30:00Z,28.2598,-96.7737,0.0,29.4,1111122 
TCOON,ioos:station:TCOON:127:1,2014-07-10T01:30:00Z,28.2598,-96.7737,0.0,29.5,1111122 
TCOON,ioos:station:TCOON:127:1,2014-07-10T02:30:00Z,28.2598,-96.7737,0.0,29.5,1111122 
TCOON,ioos:station:TCOON:127:1,2014-07-10T03:30:00Z,28.2598,-96.7737,0.0,29.5,1111122 
TCOON,ioos:station:TCOON:127:1,2014-07-10T04:30:00Z,28.2598,-96.7737,0.0,29.5,1111122 
TCOON,ioos:station:TCOON:127:1,2014-07-10T05:30:00Z,28.2598,-96.7737,0.0,29.5,1111122 
TCOON,ioos:station:TCOON:127:1,2014-07-10T06:30:00Z,28.2598,-96.7737,0.0,29.4,1111122 
TCOON,ioos:station:TCOON:127:1,2014-07-10T07:30:00Z,28.2598,-96.7737,0.0,29.4,1111122 
TCOON,ioos:station:TCOON:127:1,2014-07-10T08:30:00Z,28.2598,-96.7737,0.0,29.5,1111122 
TCOON,ioos:station:TCOON:127:1,2014-07-10T09:30:00Z,28.2598,-96.7737,0.0,29.2,1111122 
TCOON,ioos:station:TCOON:127:1,2014-07-10T10:30:00Z,28.2598,-96.7737,0.0,29.4,1111122 
TCOON,ioos:station:TCOON:127:1,2014-07-10T11:30:00Z,28.2598,-96.7737,0.0,29.5,1111122 
TCOON,ioos:station:TCOON:127:1,2014-07-10T12:30:00Z,28.2598,-96.7737,0.0,29.7,1111122 
TCOON,ioos:station:TCOON:127:1,2014-07-10T13:30:00Z,28.2598,-96.7737,0.0,30.0,1111122 
TCOON,ioos:station:TCOON:127:1,2014-07-10T15:00:00Z,28.2598,-96.7737,0.0,29.3,1111122 
TCOON,ioos:station:TCOON:127:1,2014-07-10T15:30:00Z,28.2598,-96.7737,0.0,29.1,1111122 
TCOON,ioos:station:TCOON:127:1,2014-07-10T16:30:00Z,28.2598,-96.7737,0.0,29.3,1111122 
TCOON,ioos:station:TCOON:127:1,2014-07-10T18:00:00Z,28.2598,-96.7737,0.0,29.7,1111122 
TCOON,ioos:station:TCOON:127:1,2014-07-10T18:30:00Z,28.2598,-96.7737,0.0,29.7,1111122 
TCOON,ioos:station:TCOON:127:1,2014-07-10T19:30:00Z,28.2598,-96.7737,0.0,29.7,1111122 
TCOON,ioos:station:TCOON:127:1,2014-07-10T20:30:00Z,28.2598,-96.7737,0.0,27.8,1111122 
TCOON,ioos:station:TCOON:127:1,2014-07-10T21:30:00Z,28.2598,-96.7737,0.0,27.7,1111122 
TCOON,ioos:station:TCOON:127:1,2014-07-10T22:30:00Z,28.2598,-96.7737,0.0,30.1,1111122 
TCOON,ioos:station:TCOON:127:1,2014-07-10T23:30:00Z,28.2598,-96.7737,0.0,30.0,1111122 
TCOON,ioos:station:TCOON:127:1,2014-07-11T00:30:00Z,28.2598,-96.7737,0.0,29.8,1111122 
TCOON,ioos:station:TCOON:127:1,2014-07-11T01:30:00Z,28.2598,-96.7737,0.0,28.6,1111122 
TCOON,ioos:station:TCOON:127:1,2014-07-11T03:30:00Z,28.2598,-96.7737,0.0,28.3,1111122 
TCOON,ioos:station:TCOON:127:1,2014-07-11T05:30:00Z,28.2598,-96.7737,0.0,28.0,1111122 
TCOON,ioos:station:TCOON:127:1,2014-07-11T06:30:00Z,28.2598,-96.7737,0.0,28.7,1111122 
TCOON,ioos:station:TCOON:127:1,2014-07-11T07:30:00Z,28.2598,-96.7737,0.0,27.7,1111122 
TCOON,ioos:station:TCOON:127:1,2014-07-11T08:30:00Z,28.2598,-96.7737,0.0,27.5,1111122 
TCOON,ioos:station:TCOON:127:1,2014-07-11T09:30:00Z,28.2598,-96.7737,0.0,27.7,1111122 
TCOON,ioos:station:TCOON:127:1,2014-07-11T10:30:00Z,28.2598,-96.7737,0.0,27.5,1111122 
TCOON,ioos:station:TCOON:127:1,2014-07-11T11:30:00Z,28.2598,-96.7737,0.0,27.3,1111122 
TCOON,ioos:station:TCOON:127:1,2014-07-11T12:30:00Z,28.2598,-96.7737,0.0,27.3,1111122 
TCOON,ioos:station:TCOON:127:1,2014-07-11T14:00:00Z,28.2598,-96.7737,0.0,26.6,1111122 
TCOON,ioos:station:TCOON:127:1,2014-07-11T14:30:00Z,28.2598,-96.7737,0.0,26.5,1111122 
TCOON,ioos:station:TCOON:127:1,2014-07-11T15:30:00Z,28.2598,-96.7737,0.0,26.0,1111122 
TCOON,ioos:station:TCOON:127:1,2014-07-11T16:30:00Z,28.2598,-96.7737,0.0,29.2,1111122 
TCOON,ioos:station:TCOON:127:1,2014-07-11T18:30:00Z,28.2598,-96.7737,0.0,28.9,1111122 
TCOON,ioos:station:TCOON:127:1,2014-07-11T19:30:00Z,28.2598,-96.7737,0.0,30.7,1111122 
TCOON,ioos:station:TCOON:127:1,2014-07-11T20:30:00Z,28.2598,-96.7737,0.0,30.5,1111122 
TCOON,ioos:station:TCOON:127:1,2014-07-11T21:30:00Z,28.2598,-96.7737,0.0,30.3,1111122 
TCOON,ioos:station:TCOON:127:1,2014-07-11T22:30:00Z,28.2598,-96.7737,0.0,30.1,1111122 
TCOON,ioos:station:TCOON:127:1,2014-07-11T23:30:00Z,28.2598,-96.7737,0.0,29.8,1111122 
TCOON,ioos:station:TCOON:127:1,2014-07-12T00:30:00Z,28.2598,-96.7737,0.0,29.6,1111122 
TCOON,ioos:station:TCOON:127:1,2014-07-12T01:30:00Z,28.2598,-96.7737,0.0,29.7,1111122 
TCOON,ioos:station:TCOON:127:1,2014-07-12T02:30:00Z,28.2598,-96.7737,0.0,29.9,1111122 
TCOON,ioos:station:TCOON:127:1,2014-07-12T03:30:00Z,28.2598,-96.7737,0.0,29.9,1111122 
TCOON,ioos:station:TCOON:127:1,2014-07-12T04:30:00Z,28.2598,-96.7737,0.0,30.2,1111122 
TCOON,ioos:station:TCOON:127:1,2014-07-12T05:30:00Z,28.2598,-96.7737,0.0,30.5,1111122 
TCOON,ioos:station:TCOON:127:1,2014-07-12T06:30:00Z,28.2598,-96.7737,0.0,30.4,1111122 
TCOON,ioos:station:TCOON:127:1,2014-07-12T07:30:00Z,28.2598,-96.7737,0.0,30.5,1111122 
TCOON,ioos:station:TCOON:127:1,2014-07-12T08:30:00Z,28.2598,-96.7737,0.0,30.5,1111122 
TCOON,ioos:station:TCOON:127:1,2014-07-12T09:30:00Z,28.2598,-96.7737,0.0,30.4,1111122 
TCOON,ioos:station:TCOON:127:1,2014-07-12T11:00:00Z,28.2598,-96.7737,0.0,30.5,1111122 
TCOON,ioos:station:TCOON:127:1,2014-07-12T11:30:00Z,28.2598,-96.7737,0.0,30.5,1111122 
TCOON,ioos:station:TCOON:127:1,2014-07-12T12:30:00Z,28.2598,-96.7737,0.0,30.0,1111122 
TCOON,ioos:station:TCOON:127:1,2014-07-12T13:30:00Z,28.2598,-96.7737,0.0,30.0,1111122 
TCOON,ioos:station:TCOON:127:1,2014-07-12T14:30:00Z,28.2598,-96.7737,0.0,30.7,1111122 
TCOON,ioos:station:TCOON:127:1,2014-07-12T15:30:00Z,28.2598,-96.7737,0.0,30.7,1111122 
TCOON,ioos:station:TCOON:127:1,2014-07-12T16:30:00Z,28.2598,-96.7737,0.0,30.0,1111122 
TCOON,ioos:station:TCOON:127:1,2014-07-12T17:30:00Z,28.2598,-96.7737,0.0,29.7,1111122 
TCOON,ioos:station:TCOON:127:1,2014-07-12T18:30:00Z,28.2598,-96.7737,0.0,28.7,1111122 
TCOON,ioos:station:TCOON:127:1,2014-07-12T19:30:00Z,28.2598,-96.7737,0.0,28.3,1111122 
TCOON,ioos:station:TCOON:127:1,2014-07-12T20:30:00Z,28.2598,-96.7737,0.0,28.1,1111122 
TCOON,ioos:station:TCOON:127:1,2014-07-12T21:30:00Z,28.2598,-96.7737,0.0,28.3,1111122 
TCOON,ioos:station:TCOON:127:1,2014-07-12T22:30:00Z,28.2598,-96.7737,0.0,28.6,1111122 
TCOON,ioos:station:TCOON:127:1,2014-07-12T23:30:00Z,28.2598,-96.7737,0.0,28.7,1111122 
TCOON,ioos:station:TCOON:127:1,2014-07-13T01:00:00Z,28.2598,-96.7737,0.0,29.2,1111122 
TCOON,ioos:station:TCOON:127:1,2014-07-13T01:30:00Z,28.2598,-96.7737,0.0,29.5,1111122 